Regional Weather Roundup
Issued by NWS

Home | Current Version | Previous Version | Text Only | Print | Product List | Glossary On
Versions: 1 2 3 4 5 6 7 8 9 10 11 12 13 14 15 16 17 18 19 20 21 22 23 24 25 26 27 28 29 30 31 32 33 34 35 36 37 38 39 40 41 42 43 44 45 46 47 48 49 50
000
ASUS45 KBOI 310810
RWRID
WEATHER ROUNDUP FOR IDAHO
NATIONAL WEATHER SERVICE BOISE ID
200 AM MDT THU JUL 31 2014

NOTE: "FAIR" INDICATES FEW OR NO CLOUDS BELOW 12000 FEET
WITH NO SIGNIFICANT WEATHER AND/OR OBSTRUCTIONS TO VISIBILITY

IDZ012-014-310900-
SOUTHWEST IDAHO


CITY           SKY/WX    TMP DP  RH WIND       PRES   REMARKS
BOISE          CLEAR     77  46  33 E7        30.10F
CALDWELL       CLEAR     70  46  43 E8        30.09S
MOUNTAIN HOME  MOCLDY    72  49  43 E10       30.11S
$$

IDZ016-017-310900-
SOUTHCENTRAL IDAHO


CITY           SKY/WX    TMP DP  RH WIND       PRES   REMARKS
BURLEY         MOCLDY    64  53  67 CALM      30.19S
JEROME         MOCLDY    66  51  58 NE7       30.19S
TWIN FALLS     MOCLDY    64  48  56 CALM      30.19S
$$

IDZ019>023-310900-
SOUTHEAST IDAHO


CITY           SKY/WX    TMP DP  RH WIND       PRES   REMARKS
IDAHO FALLS    CLEAR     60  50  69 CALM      30.27S
POCATELLO      CLEAR     61  49  64 E5        30.23F
REXBURG        PTCLDY    63  47  55 MISG      30.27S
$$

IDZ006-010-011-018-031-032-310900-
CENTRAL IDAHO MOUNTAINS


CITY           SKY/WX    TMP DP  RH WIND       PRES   REMARKS
MCCALL         PTCLDY    57  44  62 NE3       30.25S
HAILEY         PTCLDY    57  50  77 NW14      30.31S
STANLEY          N/A     45  44  97 CALM      30.41F
SALMON         PTCLDY    61  46  59 CALM      30.24R
CHALLIS        PTCLDY    54  44  69 CALM      30.30F
$$

IDZ002-004-006-007-026-310900-
NORTHERN IDAHO


CITY           SKY/WX    TMP DP  RH WIND       PRES   REMARKS
LEWISTON       MOCLDY    77  42  28 SE5       29.98S
LOWELL           N/A     66  55  67 NW6       30.07R
COEUR D`ALENE  CLEAR     68  50  52 SE3       30.04R
MULLAN PASS    CLEAR     71  34  25 W3        30.31S
$$


USA.gov is the U.S. government's official web portal to all federal, state and local government web resources and services.